QPF
0.00 0.00 0.00 0.00 0.00 0.03 0.03 0.00 0.00 0.00 0.00 0.00 0.00 0.00 0.00 0.00 0.00 0.00 0.00 0.00 0.00 0.00 0.00 0.00 0.00 0.00 0.00 0.00 0.00 0.00 0.00 0.00 0.00 0.00 0.00 0.00 0.00 0.00 0.00 0.00 0.00 0.00 0.00
0.00 0.00 0.00 0.00 0.00 0.00 0.02 0.02 0.01 0.00 0.00 0.00 0.00 0.00 0.00 0.00 0.00 0.00 0.00 0.00 0.00 0.00 0.00 0.00 0.00 0.00 0.00 0.00 0.00 0.00 0.00 0.00 0.00 0.00 0.00 0.00 0.00 0.00 0.00 0.00 0.00 0.00 0.00
0.00 0.00 0.00 0.00 0.00 0.00 0.04 0.04 0.02 0.01 0.00 0.00 0.00 0.00 0.00 0.00 0.00 0.00 0.00 0.00 0.00 0.00 0.00 0.00 0.00 0.00 0.00 0.00 0.00 0.00 0.00 0.00 0.00 0.00 0.00 0.00 0.00 0.00 0.00 0.00 0.00 0.00 0.00
0.00 0.00 0.00 0.00 0.00 0.05 0.15 0.04 0.05 0.02 0.00 0.01 0.00 0.00 0.00 0.00 0.00 0.00 0.00 0.00 0.00 0.00 0.00 0.00 0.00 0.00 0.00 0.00 0.00 0.00 0.00 0.00 0.00 0.00 0.00 0.00 0.00 0.00 0.00 0.00 0.00 0.00 0.00
0.00 0.00 0.00 0.00 0.02 0.04 0.13 0.05 0.02 0.02 0.02 0.01 0.00 0.00 0.00 0.00 0.00 0.00 0.00 0.00 0.00 0.00 0.00 0.00 0.00 0.00 0.00 0.00 0.00 0.00 0.00 0.00 0.00 0.00 0.00 0.00 0.00 0.00 0.00 0.00 0.00 0.00 0.00
0.00 0.00 0.00 0.00 0.02 0.07 0.09 0.01 0.00 0.00 0.00 0.00 0.00 0.00 0.00 0.00 0.00 0.00 0.00 0.00 0.00 0.00 0.00 0.00 0.00 0.00 0.00 0.00 0.00 0.00 0.00 0.00 0.00 0.00 0.00 0.00 0.00 0.00 0.00 0.00 0.00 0.00 0.00
0.00 0.00 0.00 0.02 0.04 0.05 0.03 0.00 0.00 0.00 0.00 0.00 0.00 0.00 0.00 0.00 0.00 0.00 0.00 0.00 0.00 0.00 0.00 0.00 0.00 0.00 0.00 0.00 0.00 0.00 0.00 0.00 0.00 0.00 0.00 0.00 0.00 0.00 0.00 0.00 0.00 0.00 0.00
0.00 0.00 0.01 0.02 0.04 0.05 0.01 0.00 0.00 0.00 0.00 0.00 0.00 0.00 0.00 0.00 0.00 0.00 0.00 0.00 0.00 0.00 0.00 0.00 0.00 0.00 0.00 0.00 0.00 0.00 0.00 0.00 0.00 0.00 0.00 0.00 0.00 0.00 0.00 0.00 0.00 0.00 0.00
0.00 0.00 0.00 0.01 0.02 0.02 0.01 0.00 0.00 0.00 0.00 0.00 0.00 0.00 0.00 0.00 0.00 0.00 0.00 0.00 0.00 0.00 0.00 0.00 0.00 0.00 0.00 0.00 0.00 0.00 0.00 0.00 0.00 0.00 0.00 0.00 0.00 0.00 0.00 0.00 0.00 0.00 0.00
0.00 0.00 0.00 0.00 0.00 0.00 0.00 0.00 0.00 0.00 0.00 0.00 0.00 0.00 0.00 0.00 0.00 0.00 0.00 0.00 0.00 0.00 0.00 0.00 0.00 0.00 0.00 0.00 0.00 0.00 0.00 0.00 0.00 0.00 0.00 0.00 0.00 0.00 0.00 0.00 0.00 0.00 0.00
0.00 0.00 0.00 0.00 0.00 0.00 0.00 0.00 0.00 0.00 0.00 0.00 0.00 0.00 0.00 0.00 0.00 0.00 0.00 0.00 0.00 0.00 0.00 0.00 0.00 0.00 0.00 0.00 0.00 0.00 0.00 0.00 0.00 0.00 0.00 0.00 0.00 0.00 0.00 0.00 0.00 0.00 0.00
0.00 0.00 0.00 0.00 0.00 0.00 0.00 0.00 0.00 0.00 0.00 0.00 0.00 0.00 0.00 0.00 0.00 0.00 0.00 0.00 0.00 0.00 0.00 0.00 0.00 0.00 0.00 0.00 0.00 0.00 0.00 0.00 0.00 0.00 0.00 0.00 0.00 0.00 0.00 0.00 0.00 0.00 0.00
0.00 0.00 0.00 0.00 0.00 0.00 0.00 0.00 0.00 0.00 0.00 0.00 0.00 0.00 0.00 0.00 0.00 0.00 0.00 0.00 0.00 0.00 0.00 0.00 0.00 0.00 0.00 0.00 0.00 0.00 0.00 0.00 0.00 0.00 0.00 0.00 0.00 0.00 0.00 0.00 0.00 0.00 0.00
0.00 0.00 0.00 0.00 0.00 0.00 0.00 0.00 0.00 0.00 0.00 0.00 0.00 0.00 0.00 0.00 0.00 0.00 0.00 0.00 0.00 0.00 0.00 0.00 0.00 0.00 0.00 0.00 0.00 0.00 0.00 0.00 0.00 0.00 0.00 0.00 0.00 0.00 0.00 0.00 0.00 0.00 0.00
0.00 0.00 0.00 0.00 0.00 0.00 0.00 0.00 0.00 0.00 0.00 0.00 0.00 0.00 0.00 0.00 0.00 0.00 0.00 0.00 0.00 0.00 0.00 0.00 0.00 0.00 0.00 0.00 0.00 0.00 0.00 0.00 0.00 0.00 0.00 0.00 0.00 0.00 0.00 0.00 0.00 0.00 0.00
0.00 0.00 0.00 0.00 0.00 0.00 0.01 0.01 0.00 0.00 0.00 0.00 0.00 0.00 0.00 0.00 0.00 0.00 0.00 0.00 0.00 0.00 0.00 0.00 0.00 0.00 0.00 0.00 0.00 0.00 0.00 0.00 0.00 0.00 0.00 0.00 0.00 0.00 0.00 0.00 0.00 0.00 0.00
0.00 0.00 0.00 0.00 0.00 0.00 0.00 0.00 0.00 0.00 0.00 0.00 0.00 0.00 0.00 0.00 0.00 0.00 0.00 0.00 0.00 0.00 0.00 0.00 0.00 0.00 0.00 0.00 0.00 0.00 0.00 0.00 0.00 0.00 0.00 0.00 0.00 0.00 0.00 0.00 0.00 0.00 0.00
0.00 0.00 0.00 0.00 0.00 0.00 0.00 0.00 0.00 0.00 0.00 0.00 0.00 0.00 0.00 0.00 0.00 0.00 0.00 0.00 0.00 0.00 0.00 0.00 0.00 0.00 0.00 0.00 0.00 0.00 0.00 0.00 0.00 0.00 0.00 0.00 0.00 0.00 0.00 0.00 0.00 0.00 0.00
0.00 0.00 0.00 0.00 0.00 0.00 0.00 0.00 0.00 0.00 0.00 0.00 0.00 0.00 0.00 0.00 0.00 0.01 0.01 0.00 0.00 0.00 0.00 0.00 0.00 0.00 0.00 0.00 0.00 0.00 0.00 0.00 0.00 0.00 0.00 0.00 0.00 0.00 0.00 0.00 0.00 0.00 0.00
0.00 0.00 0.00 0.00 0.00 0.00 0.00 0.00 0.00 0.00 0.00 0.00 0.00 0.00 0.00 0.02 0.05 0.05 0.01 0.00 0.00 0.00 0.00 0.00 0.00 0.00 0.00 0.00 0.00 0.00 0.00 0.00 0.00 0.00 0.00 0.00 0.00 0.00 0.00 0.00 0.00 0.00 0.00
0.00 0.00 0.00 0.00 0.00 0.00 0.00 0.00 0.00 0.00 0.00 0.00 0.02 0.05 0.08 0.09 0.05 0.01 0.00 0.00 0.00 0.00 0.00 0.00 0.00 0.00 0.00 0.00 0.00 0.00 0.00 0.00 0.00 0.00 0.00 0.00 0.00 0.00 0.00 0.00 0.00 0.00 0.00
0.00 0.00 0.00 0.00 0.00 0.00 0.00 0.00 0.00 0.01 0.02 0.05 0.08 0.09 0.05 0.01 0.00 0.00 0.00 0.00 0.00 0.00 0.00 0.00 0.00 0.00 0.00 0.00 0.00 0.00 0.00 0.00 0.00 0.00 0.00 0.00 0.00 0.00 0.00 0.00 0.00 0.00 0.00
0.00 0.00 0.00 0.00 0.00 0.00 0.00 0.00 0.00 0.00 0.01 0.03 0.02 0.00 0.00 0.00 0.00 0.00 0.00 0.00 0.00 0.00 0.00 0.00 0.00 0.00 0.00 0.00 0.00 0.00 0.00 0.00 0.00 0.00 0.00 0.00 0.00 0.00 0.00 0.00 0.00 0.00 0.00
0.00 0.00 0.00 0.00 0.00 0.00 0.00 0.00 0.00 0.00 0.00 0.00 0.00 0.00 0.00 0.00 0.00 0.00 0.00 0.00 0.00 0.00 0.00 0.00 0.00 0.00 0.00 0.00 0.00 0.00 0.00 0.00 0.00 0.00 0.00 0.00 0.00 0.00 0.00 0.00 0.00 0.00 0.00
0.00 0.00 0.00 0.00 0.00 0.00 0.00 0.00 0.00 0.00 0.00 0.00 0.00 0.00 0.00 0.00 0.00 0.00 0.00 0.00 0.00 0.00 0.00 0.00 0.00 0.00 0.00 0.00 0.00 0.00 0.01 0.01 0.00 0.01 0.00 0.00 0.00 0.00 0.00 0.00 0.00 0.00 0.00
0.00 0.00 0.00 0.00 0.00 0.00 0.00 0.00 0.00 0.00 0.00 0.00 0.00 0.00 0.00 0.00 0.00 0.00 0.00 0.00 0.00 0.00 0.00 0.00 0.00 0.00 0.00 0.00 0.00 0.00 0.01 0.01 0.01 0.03 0.01 0.00 0.00 0.00 0.00 0.00 0.00 0.00 0.00
MSLP
1014.67 1015.07 1015.62 1016.34 1016.75 1017.29 1017.61 1018.08 1018.66 1019.26 1019.61 1020.50 1020.94 1021.35 1021.57 1021.81 1022.13 1022.32 1022.42 1022.53 1022.64 1022.96 1023.26 1023.75 1024.27 1024.60 1024.72 1025.00 1025.12 1025.51 1025.65 1025.77 1025.76 1025.99 1026.19 1025.97 1026.08 1026.10 1026.08 1025.89 1026.09 1025.96 1025.75
1014.34 1015.00 1015.45 1016.02 1016.54 1017.21 1017.71 1018.13 1018.48 1019.05 1019.53 1019.77 1020.10 1020.52 1021.13 1021.86 1022.12 1022.47 1022.70 1022.76 1022.80 1023.00 1023.41 1024.00 1024.40 1024.57 1024.89 1025.24 1025.47 1025.67 1025.88 1026.00 1026.00 1026.36 1026.73 1026.81 1026.55 1026.23 1026.12 1026.30 1026.21 1026.39 1026.14
1013.48 1014.27 1014.86 1015.42 1016.35 1017.10 1017.38 1018.13 1018.64 1018.90 1019.08 1019.44 1020.07 1020.71 1021.33 1022.07 1022.74 1023.06 1023.03 1023.04 1023.07 1023.43 1023.83 1024.29 1024.66 1025.00 1025.24 1025.60 1025.69 1025.72 1025.81 1026.11 1026.29 1026.21 1026.51 1027.02 1027.27 1027.05 1026.56 1026.35 1026.29 1026.19 1026.25
1013.20 1013.79 1014.56 1015.24 1015.64 1016.37 1017.29 1017.69 1018.31 1018.60 1019.10 1019.42 1019.92 1020.28 1021.03 1021.91 1022.60 1022.75 1022.95 1023.20 1023.41 1023.89 1024.26 1024.64 1024.90 1025.23 1025.47 1025.66 1025.58 1025.41 1025.77 1026.01 1026.47 1026.54 1026.46 1026.58 1026.83 1027.22 1027.45 1026.65 1026.26 1026.10 1026.05
1012.59 1013.39 1013.93 1014.57 1015.88 1016.45 1016.84 1017.25 1018.23 1018.64 1019.14 1019.48 1019.74 1020.20 1021.09 1021.75 1022.28 1022.86 1023.25 1023.79 1024.17 1024.55 1024.90 1024.99 1025.25 1025.40 1025.54 1025.60 1025.57 1025.76 1025.90 1026.10 1026.60 1026.72 1026.73 1026.81 1026.85 1026.89 1027.12 1027.16 1026.81 1026.34 1025.89
1013.02 1013.71 1014.43 1015.13 1016.05 1016.57 1017.07 1017.66 1018.08 1018.75 1019.07 1019.47 1019.92 1020.22 1020.97 1021.95 1022.75 1023.39 1023.91 1024.37 1024.94 1025.28 1025.27 1025.24 1025.28 1025.39 1025.58 1025.54 1025.67 1025.82 1025.92 1026.19 1026.41 1026.57 1026.69 1026.78 1026.94 1026.91 1026.99 1027.25 1026.97 1026.92 1026.31
1013.11 1013.71 1014.57 1015.29 1016.12 1016.38 1017.04 1017.45 1018.05 1019.07 1019.43 1019.64 1020.20 1020.56 1021.14 1021.79 1022.55 1023.30 1023.94 1024.37 1024.79 1025.21 1025.45 1025.76 1025.90 1025.71 1025.49 1025.56 1025.67 1025.57 1025.66 1025.89 1026.32 1026.43 1026.38 1026.35 1026.42 1026.41 1026.47 1026.69 1026.76 1026.80 1026.50
1013.01 1013.64 1014.24 1015.09 1015.73 1016.32 1016.97 1017.11 1017.84 1019.05 1019.59 1019.86 1020.66 1021.16 1021.62 1022.17 1022.81 1023.43 1024.01 1024.61 1024.96 1025.31 1025.26 1025.00 1025.66 1025.59 1025.47 1025.44 1025.49 1025.58 1025.61 1025.59 1025.72 1025.86 1025.85 1025.97 1026.06 1026.37 1026.32 1026.30 1026.46 1026.61 1026.50
1012.87 1013.59 1014.38 1014.89 1015.66 1016.31 1016.78 1017.18 1017.82 1018.94 1019.62 1020.11 1020.75 1021.51 1022.10 1022.57 1023.08 1023.61 1023.97 1024.28 1024.78 1024.80 1025.11 1025.18 1025.34 1025.15 1025.27 1025.33 1025.45 1025.61 1025.61 1025.62 1025.70 1025.67 1025.66 1025.57 1025.80 1026.01 1026.17 1026.19 1026.42 1026.57 1026.94
1012.96 1013.64 1014.26 1014.93 1015.33 1015.84 1016.40 1017.06 1017.66 1018.37 1019.38 1020.08 1020.65 1021.38 1021.97 1022.50 1022.99 1023.40 1023.81 1024.03 1024.15 1024.50 1024.62 1024.83 1024.92 1025.11 1025.17 1025.15 1025.17 1025.37 1025.39 1025.49 1025.41 1025.34 1025.38 1025.55 1025.56 1025.79 1026.07 1026.20 1026.39 1026.47 1026.90
1012.53 1013.12 1013.66 1014.25 1014.67 1015.41 1016.00 1016.67 1017.39 1018.07 1018.90 1019.42 1020.01 1020.67 1021.43 1021.96 1022.39 1022.85 1023.30 1023.58 1023.76 1023.93 1024.34 1024.33 1024.59 1024.90 1024.88 1024.85 1025.09 1025.36 1025.34 1025.44 1025.31 1025.08 1025.06 1025.37 1025.42 1025.63 1025.86 1026.12 1026.29 1026.34 1026.50
1011.78 1012.26 1012.78 1013.53 1014.28 1014.80 1015.46 1015.98 1016.64 1017.26 1017.86 1018.60 1019.38 1020.09 1020.73 1021.33 1021.89 1022.30 1022.71 1023.01 1023.26 1023.40 1023.97 1024.05 1024.33 1024.51 1024.73 1024.77 1024.91 1024.93 1025.04 1025.09 1025.17 1025.10 1025.09 1025.18 1025.35 1025.51 1025.87 1026.05 1026.26 1026.39 1026.40
1011.37 1011.99 1012.75 1013.13 1013.50 1013.99 1014.57 1015.25 1015.94 1016.71 1017.55 1018.36 1019.13 1019.88 1020.35 1020.81 1021.31 1021.81 1022.24 1022.66 1023.01 1023.45 1023.74 1023.82 1023.95 1023.99 1024.05 1024.31 1024.55 1024.60 1024.77 1024.94 1025.17 1025.20 1025.18 1025.15 1025.28 1025.49 1025.84 1025.92 1026.04 1026.33 1026.19
1011.13 1011.68 1012.27 1012.62 1013.00 1013.47 1014.09 1015.20 1016.02 1016.75 1017.46 1018.12 1018.79 1019.44 1019.91 1020.33 1020.70 1021.18 1021.89 1022.35 1022.73 1023.13 1023.44 1023.58 1023.56 1023.54 1023.63 1023.83 1024.06 1024.27 1024.60 1024.91 1024.98 1025.03 1025.01 1025.15 1025.15 1025.28 1025.45 1025.71 1025.79 1025.98 1026.20
1011.07 1011.58 1012.21 1012.67 1013.20 1013.94 1014.58 1015.44 1016.08 1016.64 1017.08 1017.94 1018.50 1018.96 1019.33 1019.79 1020.56 1021.29 1021.86 1022.26 1022.63 1022.77 1022.91 1022.97 1023.00 1023.10 1023.18 1023.32 1023.64 1023.97 1024.22 1024.52 1024.77 1024.90 1024.89 1024.89 1024.94 1024.78 1025.14 1025.20 1025.55 1025.67 1025.68
1010.91 1011.09 1011.80 1012.62 1013.15 1013.61 1014.34 1015.19 1015.83 1016.33 1016.93 1017.56 1018.04 1018.57 1019.29 1019.99 1020.66 1021.22 1021.72 1022.27 1022.39 1022.66 1022.86 1022.75 1022.69 1022.69 1022.78 1022.82 1023.12 1023.55 1023.97 1024.27 1024.47 1024.62 1024.69 1024.76 1024.63 1024.63 1024.76 1024.81 1025.05 1025.11 1025.19
1011.91 1011.89 1012.02 1012.29 1012.80 1013.38 1013.93 1014.66 1015.32 1016.13 1016.89 1017.67 1018.26 1018.67 1019.26 1020.07 1020.75 1021.24 1021.53 1022.07 1022.57 1022.86 1022.81 1022.64 1022.42 1022.48 1022.48 1022.61 1022.84 1023.18 1023.61 1023.89 1024.17 1024.32 1024.48 1024.59 1024.58 1024.71 1024.85 1024.85 1024.97 1024.89 1024.71
1012.83 1012.92 1012.68 1012.79 1012.99 1013.25 1013.88 1014.55 1015.44 1016.30 1017.09 1017.75 1018.35 1018.95 1019.64 1020.22 1020.59 1021.01 1021.38 1022.18 1022.76 1022.87 1022.59 1022.34 1022.23 1022.19 1022.17 1022.43 1022.63 1022.99 1023.41 1023.70 1023.90 1023.97 1024.14 1024.21 1024.28 1024.49 1024.60 1024.69 1024.60 1024.48 1024.43
1014.18 1014.29 1014.24 1013.97 1013.79 1014.10 1014.77 1015.44 1016.37 1017.31 1018.26 1019.30 1020.03 1020.62 1020.93 1021.29 1021.93 1021.95 1021.99 1022.27 1022.33 1022.41 1022.36 1022.17 1022.00 1021.91 1021.87 1022.06 1022.47 1022.88 1023.21 1023.53 1023.68 1023.73 1023.79 1023.78 1023.89 1024.01 1024.02 1024.20 1024.20 1024.10 1023.97
1015.35 1015.32 1015.34 1015.29 1015.35 1015.87 1015.75 1016.58 1017.87 1018.62 1019.65 1020.44 1020.89 1021.20 1021.48 1021.78 1022.01 1022.05 1022.26 1022.25 1021.86 1022.17 1022.20 1022.02 1021.80 1021.63 1021.66 1021.89 1022.08 1022.44 1022.80 1023.21 1023.40 1023.51 1023.48 1023.31 1023.43 1023.54 1023.66 1023.71 1023.82 1023.85 1023.70
1016.57 1016.72 1016.68 1016.89 1017.51 1017.70 1017.53 1018.07 1019.04 1019.81 1020.46 1020.72 1021.19 1021.30 1021.73 1021.89 1022.03 1022.23 1022.26 1022.08 1022.00 1022.13 1022.15 1021.96 1021.68 1021.62 1021.59 1021.47 1021.53 1021.78 1022.15 1022.45 1022.82 1023.02 1023.05 1023.02 1022.96 1023.05 1023.08 1023.02 1023.18 1023.36 1023.25
1017.62 1017.79 1017.87 1018.41 1018.74 1018.88 1018.97 1019.52 1019.88 1020.67 1020.81 1020.90 1021.34 1021.73 1021.87 1021.91 1021.97 1022.07 1022.07 1021.91 1021.90 1022.07 1022.09 1021.92 1021.65 1021.21 1021.07 1021.07 1021.30 1021.34 1021.41 1021.63 1022.14 1022.34 1022.25 1022.28 1022.37 1022.43 1022.45 1022.44 1022.48 1022.44 1022.63
1018.70 1018.89 1018.82 1019.19 1019.58 1019.75 1019.96 1020.31 1020.85 1021.17 1021.42 1021.39 1021.69 1021.89 1021.91 1021.89 1021.89 1021.92 1021.87 1021.83 1021.72 1021.72 1021.76 1021.72 1021.49 1021.25 1020.80 1020.89 1020.88 1020.94 1020.89 1020.98 1021.24 1021.34 1021.46 1021.65 1021.84 1021.87 1021.90 1021.98 1021.97 1022.03 1022.18
1019.61 1019.81 1019.95 1020.09 1020.42 1020.59 1020.83 1021.13 1021.33 1021.52 1021.68 1021.77 1021.88 1021.95 1022.00 1021.85 1021.65 1021.56 1021.43 1021.49 1021.40 1021.41 1021.38 1021.20 1021.13 1020.75 1020.58 1020.26 1020.14 1020.18 1020.42 1020.66 1020.65 1020.66 1020.93 1021.12 1021.35 1021.47 1021.50 1021.63 1021.62 1021.60 1021.73
1020.50 1020.56 1020.80 1020.96 1021.14 1021.19 1021.35 1021.44 1021.57 1021.69 1021.86 1021.96 1022.03 1022.09 1022.09 1021.94 1021.66 1021.37 1021.20 1020.99 1020.64 1020.68 1020.47 1020.32 1020.31 1020.21 1019.91 1019.53 1019.28 1019.31 1019.54 1019.61 1019.82 1020.34 1020.75 1020.99 1021.11 1021.22 1021.15 1021.23 1021.22 1021.10 1021.25
1020.99 1021.19 1021.31 1021.38 1021.53 1021.61 1021.69 1021.65 1021.62 1021.65 1021.82 1021.94 1021.93 1021.90 1021.83 1021.62 1021.35 1021.01 1020.53 1020.14 1019.85 1019.61 1019.46 1019.35 1019.35 1019.04 1018.75 1018.38 1018.36 1018.38 1018.55 1018.66 1018.95 1019.49 1019.85 1020.15 1020.33 1020.54 1020.54 1020.66 1020.73 1020.68 1020.82
Thickness
5659 5660 5658 5652 5649 5645 5645 5641 5637 5633 5630 5619 5616 5614 5614 5612 5609 5605 5601 5597 5593 5587 5581 5572 5561 5552 5548 5544 5538 5530 5523 5516 5512 5505 5498 5493 5486 5481 5476 5472 5467 5463 5458
5658 5655 5658 5656 5652 5646 5645 5640 5637 5630 5627 5625 5623 5620 5615 5607 5603 5598 5591 5586 5581 5575 5566 5556 5549 5544 5538 5530 5524 5517 5509 5503 5498 5492 5482 5477 5473 5471 5466 5459 5453 5446 5440
5665 5659 5659 5660 5653 5646 5644 5637 5633 5632 5630 5627 5620 5613 5608 5600 5592 5585 5581 5576 5571 5563 5556 5549 5541 5533 5526 5517 5511 5506 5500 5493 5486 5482 5473 5463 5455 5451 5451 5447 5441 5436 5427
5671 5666 5660 5655 5654 5649 5639 5638 5633 5631 5626 5623 5617 5613 5606 5596 5585 5581 5575 5567 5561 5553 5545 5536 5530 5523 5515 5507 5501 5496 5490 5482 5473 5466 5461 5454 5448 5438 5432 5432 5428 5421 5411
5677 5670 5664 5660 5648 5643 5639 5638 5630 5626 5622 5618 5615 5608 5597 5589 5581 5572 5565 5557 5550 5541 5532 5526 5518 5510 5503 5496 5490 5483 5476 5468 5458 5451 5445 5439 5432 5425 5417 5411 5407 5401 5392
5667 5664 5658 5652 5643 5639 5636 5629 5626 5620 5616 5612 5606 5601 5592 5581 5571 5560 5551 5541 5532 5524 5517 5510 5504 5497 5489 5483 5477 5470 5463 5455 5447 5439 5432 5425 5417 5410 5401 5391 5386 5378 5371
5660 5658 5652 5646 5639 5638 5632 5631 5624 5613 5608 5605 5597 5591 5583 5573 5561 5549 5538 5530 5522 5512 5503 5495 5488 5484 5479 5472 5465 5460 5452 5444 5433 5426 5420 5413 5403 5395 5386 5376 5369 5362 5354
5659 5656 5652 5644 5639 5636 5630 5629 5623 5609 5601 5596 5586 5578 5569 5559 5548 5539 5528 5516 5507 5499 5494 5492 5479 5473 5468 5463 5454 5446 5439 5432 5424 5416 5408 5398 5387 5375 5367 5358 5350 5341 5335
5657 5653 5648 5644 5636 5630 5626 5622 5617 5605 5596 5586 5576 5565 5555 5545 5536 5526 5518 5510 5500 5493 5486 5480 5471 5466 5458 5450 5442 5434 5425 5417 5409 5402 5393 5383 5370 5358 5347 5338 5327 5316 5302
5655 5650 5646 5640 5637 5632 5625 5617 5611 5601 5588 5577 5568 5557 5547 5536 5527 5519 5510 5503 5496 5486 5479 5471 5463 5453 5445 5437 5429 5421 5411 5403 5394 5386 5376 5365 5357 5342 5330 5318 5305 5293 5278
5655 5651 5648 5643 5639 5630 5622 5614 5604 5594 5583 5574 5563 5553 5542 5532 5523 5514 5506 5497 5489 5480 5469 5462 5452 5441 5433 5424 5415 5405 5396 5386 5377 5369 5360 5347 5337 5326 5313 5300 5287 5275 5262
5658 5655 5651 5645 5637 5631 5622 5614 5604 5594 5583 5572 5560 5548 5537 5526 5517 5508 5500 5490 5480 5471 5460 5451 5441 5431 5421 5410 5399 5389 5378 5368 5359 5350 5339 5330 5322 5311 5296 5282 5269 5257 5247
5652 5648 5641 5639 5634 5629 5621 5612 5603 5590 5576 5564 5552 5540 5530 5520 5511 5501 5491 5481 5471 5460 5450 5441 5431 5422 5411 5397 5384 5373 5363 5352 5340 5333 5325 5316 5304 5291 5277 5266 5255 5243 5236
5647 5641 5635 5631 5626 5619 5610 5597 5585 5575 5564 5553 5542 5531 5521 5513 5503 5493 5482 5471 5461 5450 5440 5430 5419 5408 5396 5384 5371 5359 5347 5336 5327 5318 5310 5298 5288 5275 5263 5251 5242 5233 5224
5639 5632 5624 5619 5612 5603 5595 5582 5571 5563 5554 5542 5531 5522 5515 5505 5492 5480 5470 5460 5449 5439 5429 5418 5405 5394 5383 5370 5357 5345 5334 5324 5313 5301 5291 5282 5272 5262 5251 5242 5232 5224 5217
5635 5629 5619 5609 5603 5597 5586 5574 5563 5554 5544 5534 5525 5516 5503 5491 5480 5469 5458 5446 5437 5425 5411 5401 5392 5382 5371 5359 5347 5335 5322 5313 5302 5289 5278 5268 5259 5249 5240 5234 5224 5218 5211
5617 5617 5614 5609 5601 5589 5580 5570 5558 5546 5535 5524 5514 5503 5492 5479 5467 5456 5445 5432 5418 5406 5396 5387 5380 5369 5358 5348 5336 5325 5312 5300 5289 5279 5267 5257 5249 5240 5231 5224 5216 5211 5206
5606 5604 5601 5596 5588 5580 5570 5558 5546 5533 5522 5511 5500 5489 5478 5466 5456 5444 5431 5415 5400 5390 5384 5375 5366 5356 5345 5334 5324 5311 5299 5289 5279 5269 5259 5250 5242 5233 5224 5216 5211 5206 5200
5580 5575 5570 5569 5567 5561 5550 5540 5527 5513 5498 5484 5474 5464 5454 5443 5431 5421 5409 5398 5390 5380 5370 5363 5354 5344 5334 5323 5311 5300 5290 5278 5269 5260 5251 5244 5234 5227 5219 5212 5207 5202 5196
5560 5555 5550 5547 5544 5536 5531 5518 5501 5489 5474 5463 5454 5445 5436 5427 5415 5408 5399 5388 5381 5368 5357 5350 5342 5334 5321 5312 5303 5292 5279 5269 5260 5251 5244 5236 5229 5221 5214 5207 5201 5195 5191
5540 5534 5530 5523 5513 5507 5503 5492 5479 5468 5459 5450 5438 5431 5421 5412 5402 5392 5383 5375 5365 5353 5343 5337 5330 5322 5312 5304 5296 5286 5273 5263 5253 5244 5236 5230 5222 5215 5210 5206 5198 5192 5188
5521 5515 5510 5501 5493 5487 5482 5471 5462 5450 5444 5437 5426 5415 5406 5398 5389 5379 5368 5359 5350 5339 5329 5321 5317 5311 5306 5297 5287 5279 5270 5259 5247 5238 5232 5226 5219 5212 5207 5203 5198 5193 5188
5500 5495 5491 5482 5474 5467 5460 5452 5443 5434 5426 5419 5409 5399 5391 5383 5374 5364 5356 5344 5334 5322 5316 5308 5302 5300 5295 5287 5280 5271 5264 5255 5244 5236 5229 5221 5215 5210 5205 5201 5196 5191 5185
5483 5476 5471 5463 5454 5448 5441 5433 5425 5417 5409 5401 5393 5384 5375 5368 5360 5350 5341 5331 5318 5309 5304 5298 5292 5288 5284 5279 5273 5266 5256 5247 5239 5232 5225 5217 5211 5206 5201 5196 5193 5189 5185
5463 5457 5449 5444 5437 5431 5425 5418 5410 5401 5392 5383 5376 5368 5359 5351 5343 5335 5326 5317 5311 5303 5297 5291 5284 5276 5273 5269 5265 5257 5249 5243 5235 5225 5216 5208 5203 5200 5197 5193 5190 5188 5184
5446 5439 5433 5427 5422 5416 5409 5401 5394 5386 5378 5369 5360 5351 5343 5334 5328 5321 5316 5307 5302 5297 5290 5284 5277 5274 5268 5265 5259 5252 5243 5237 5229 5221 5213 5207 5201 5198 5195 5190 5188 5185 5182